owner,sensor,date,latitude,longitude,vertical_datum,sea_water_practical_salinity,qcFlag 
TABS,ioos:station:wmo:42047:1,2008-01-02T00:00:00Z,27.8966,-93.5973,2.0,36.39,11111222 
TABS,ioos:station:wmo:42047:1,2008-01-02T00:30:00Z,27.8966,-93.5973,2.0,36.39,11111222 
TABS,ioos:station:wmo:42047:1,2008-01-02T01:00:00Z,27.8966,-93.5973,2.0,36.38,11111222 
TABS,ioos:station:wmo:42047:1,2008-01-02T01:30:00Z,27.8966,-93.5973,2.0,36.38,11111222 
TABS,ioos:station:wmo:42047:1,2008-01-02T02:00:00Z,27.8966,-93.5973,2.0,36.38,11111222 
TABS,ioos:station:wmo:42047:1,2008-01-02T02:30:00Z,27.8966,-93.5973,2.0,36.37,11111222 
TABS,ioos:station:wmo:42047:1,2008-01-02T03:00:00Z,27.8966,-93.5973,2.0,36.36,11111222 
TABS,ioos:station:wmo:42047:1,2008-01-02T03:30:00Z,27.8966,-93.5973,2.0,36.37,11111222 
TABS,ioos:station:wmo:42047:1,2008-01-02T04:00:00Z,27.8966,-93.5973,2.0,36.38,11111222 
TABS,ioos:station:wmo:42047:1,2008-01-02T04:30:00Z,27.8966,-93.5973,2.0,36.38,11111222 
TABS,ioos:station:wmo:42047:1,2008-01-02T05:00:00Z,27.8966,-93.5973,2.0,36.38,11111222 
TABS,ioos:station:wmo:42047:1,2008-01-02T05:30:00Z,27.8966,-93.5973,2.0,36.37,11111222 
TABS,ioos:station:wmo:42047:1,2008-01-02T06:00:00Z,27.8966,-93.5973,2.0,36.38,11111222 
TABS,ioos:station:wmo:42047:1,2008-01-02T06:30:00Z,27.8966,-93.5973,2.0,36.38,11111222 
TABS,ioos:station:wmo:42047:1,2008-01-02T07:00:00Z,27.8966,-93.5973,2.0,36.38,11111222 
TABS,ioos:station:wmo:42047:1,2008-01-02T07:30:00Z,27.8966,-93.5973,2.0,36.39,11111222 
TABS,ioos:station:wmo:42047:1,2008-01-02T08:00:00Z,27.8966,-93.5973,2.0,36.39,11111222 
TABS,ioos:station:wmo:42047:1,2008-01-02T08:30:00Z,27.8966,-93.5973,2.0,36.41,11111222 
TABS,ioos:station:wmo:42047:1,2008-01-02T09:00:00Z,27.8966,-93.5973,2.0,36.42,11111222 
TABS,ioos:station:wmo:42047:1,2008-01-02T09:30:00Z,27.8966,-93.5973,2.0,36.42,11111222 
TABS,ioos:station:wmo:42047:1,2008-01-02T10:00:00Z,27.8966,-93.5973,2.0,36.41,11111222 
TABS,ioos:station:wmo:42047:1,2008-01-02T10:30:00Z,27.8966,-93.5973,2.0,36.42,11111222 
TABS,ioos:station:wmo:42047:1,2008-01-02T11:00:00Z,27.8966,-93.5973,2.0,36.42,11111222 
TABS,ioos:station:wmo:42047:1,2008-01-02T11:30:00Z,27.8966,-93.5973,2.0,36.42,11111222 
TABS,ioos:station:wmo:42047:1,2008-01-02T12:00:00Z,27.8966,-93.5973,2.0,36.42,11111222 
TABS,ioos:station:wmo:42047:1,2008-01-02T12:30:00Z,27.8966,-93.5973,2.0,36.41,11111222 
TABS,ioos:station:wmo:42047:1,2008-01-02T13:00:00Z,27.8966,-93.5973,2.0,36.43,11111222 
TABS,ioos:station:wmo:42047:1,2008-01-02T13:30:00Z,27.8966,-93.5973,2.0,36.4,11111222 
TABS,ioos:station:wmo:42047:1,2008-01-02T14:00:00Z,27.8966,-93.5973,2.0,36.4,11111222 
TABS,ioos:station:wmo:42047:1,2008-01-02T14:30:00Z,27.8966,-93.5973,2.0,36.4,11111222 
TABS,ioos:station:wmo:42047:1,2008-01-02T15:00:00Z,27.8966,-93.5973,2.0,36.39,11111222 
TABS,ioos:station:wmo:42047:1,2008-01-02T15:30:00Z,27.8966,-93.5973,2.0,36.39,11111222 
TABS,ioos:station:wmo:42047:1,2008-01-02T16:00:00Z,27.8966,-93.5973,2.0,36.38,11111222 
TABS,ioos:station:wmo:42047:1,2008-01-02T16:30:00Z,27.8966,-93.5973,2.0,36.38,11111222 
TABS,ioos:station:wmo:42047:1,2008-01-02T17:00:00Z,27.8966,-93.5973,2.0,36.38,11111222 
TABS,ioos:station:wmo:42047:1,2008-01-02T17:30:00Z,27.8966,-93.5973,2.0,36.38,11111222 
TABS,ioos:station:wmo:42047:1,2008-01-02T18:00:00Z,27.8966,-93.5973,2.0,36.39,11111222 
TABS,ioos:station:wmo:42047:1,2008-01-02T18:30:00Z,27.8966,-93.5973,2.0,36.39,11111222 
TABS,ioos:station:wmo:42047:1,2008-01-02T19:00:00Z,27.8966,-93.5973,2.0,36.39,11111222 
TABS,ioos:station:wmo:42047:1,2008-01-02T19:30:00Z,27.8966,-93.5973,2.0,36.39,11111222 
TABS,ioos:station:wmo:42047:1,2008-01-02T20:00:00Z,27.8966,-93.5973,2.0,36.4,11111222 
TABS,ioos:station:wmo:42047:1,2008-01-02T20:30:00Z,27.8966,-93.5973,2.0,36.4,11111222 
TABS,ioos:station:wmo:42047:1,2008-01-02T21:00:00Z,27.8966,-93.5973,2.0,36.4,11111222 
TABS,ioos:station:wmo:42047:1,2008-01-02T21:30:00Z,27.8966,-93.5973,2.0,36.4,11111222 
TABS,ioos:station:wmo:42047:1,2008-01-02T22:00:00Z,27.8966,-93.5973,2.0,36.4,11111222 
TABS,ioos:station:wmo:42047:1,2008-01-02T22:30:00Z,27.8966,-93.5973,2.0,36.4,11111222 
TABS,ioos:station:wmo:42047:1,2008-01-02T23:00:00Z,27.8966,-93.5973,2.0,36.39,11111222 
TABS,ioos:station:wmo:42047:1,2008-01-02T23:30:00Z,27.8966,-93.5973,2.0,36.39,11111222 
TABS,ioos:station:wmo:42047:1,2008-01-03T00:00:00Z,27.8966,-93.5973,2.0,36.39,11111222 
TABS,ioos:station:wmo:42047:1,2008-01-03T00:30:00Z,27.8966,-93.5973,2.0,36.4,11111222 
TABS,ioos:station:wmo:42047:1,2008-01-03T01:00:00Z,27.8966,-93.5973,2.0,36.4,11111222 
TABS,ioos:station:wmo:42047:1,2008-01-03T01:30:00Z,27.8966,-93.5973,2.0,36.39,11111222 
TABS,ioos:station:wmo:42047:1,2008-01-03T02:00:00Z,27.8966,-93.5973,2.0,36.4,11111222 
TABS,ioos:station:wmo:42047:1,2008-01-03T02:30:00Z,27.8966,-93.5973,2.0,36.4,11111222 
TABS,ioos:station:wmo:42047:1,2008-01-03T03:00:00Z,27.8966,-93.5973,2.0,36.4,11111222 
TABS,ioos:station:wmo:42047:1,2008-01-03T03:30:00Z,27.8966,-93.5973,2.0,36.39,11111222 
TABS,ioos:station:wmo:42047:1,2008-01-03T04:00:00Z,27.8966,-93.5973,2.0,36.4,11111222 
TABS,ioos:station:wmo:42047:1,2008-01-03T04:30:00Z,27.8966,-93.5973,2.0,36.4,11111222 
TABS,ioos:station:wmo:42047:1,2008-01-03T05:00:00Z,27.8966,-93.5973,2.0,36.41,11111222 
TABS,ioos:station:wmo:42047:1,2008-01-03T05:30:00Z,27.8966,-93.5973,2.0,36.4,11111222 
TABS,ioos:station:wmo:42047:1,2008-01-03T06:00:00Z,27.8966,-93.5973,2.0,36.4,11111222 
TABS,ioos:station:wmo:42047:1,2008-01-03T06:30:00Z,27.8966,-93.5973,2.0,36.41,11111222 
TABS,ioos:station:wmo:42047:1,2008-01-03T07:00:00Z,27.8966,-93.5973,2.0,36.4,11111222 
TABS,ioos:station:wmo:42047:1,2008-01-03T07:30:00Z,27.8966,-93.5973,2.0,36.4,11111222 
TABS,ioos:station:wmo:42047:1,2008-01-03T08:00:00Z,27.8966,-93.5973,2.0,36.41,11111222 
TABS,ioos:station:wmo:42047:1,2008-01-03T08:30:00Z,27.8966,-93.5973,2.0,36.4,11111222 
TABS,ioos:station:wmo:42047:1,2008-01-03T09:00:00Z,27.8966,-93.5973,2.0,36.41,11111222 
TABS,ioos:station:wmo:42047:1,2008-01-03T09:30:00Z,27.8966,-93.5973,2.0,36.41,11111222 
TABS,ioos:station:wmo:42047:1,2008-01-03T10:00:00Z,27.8966,-93.5973,2.0,36.42,11111222 
TABS,ioos:station:wmo:42047:1,2008-01-03T10:30:00Z,27.8966,-93.5973,2.0,36.43,11111222 
TABS,ioos:station:wmo:42047:1,2008-01-03T11:00:00Z,27.8966,-93.5973,2.0,36.43,11111222 
TABS,ioos:station:wmo:42047:1,2008-01-03T11:30:00Z,27.8966,-93.5973,2.0,36.43,11111222 
TABS,ioos:station:wmo:42047:1,2008-01-03T12:00:00Z,27.8966,-93.5973,2.0,36.43,11111222 
TABS,ioos:station:wmo:42047:1,2008-01-03T12:30:00Z,27.8966,-93.5973,2.0,36.44,11111222 
TABS,ioos:station:wmo:42047:1,2008-01-03T13:00:00Z,27.8966,-93.5973,2.0,36.44,11111222 
TABS,ioos:station:wmo:42047:1,2008-01-03T13:30:00Z,27.8966,-93.5973,2.0,36.44,11111222 
TABS,ioos:station:wmo:42047:1,2008-01-03T14:00:00Z,27.8966,-93.5973,2.0,36.44,11111222 
TABS,ioos:station:wmo:42047:1,2008-01-03T14:30:00Z,27.8966,-93.5973,2.0,36.44,11111222 
TABS,ioos:station:wmo:42047:1,2008-01-03T15:00:00Z,27.8966,-93.5973,2.0,36.44,11111222 
TABS,ioos:station:wmo:42047:1,2008-01-03T15:30:00Z,27.8966,-93.5973,2.0,36.44,11111222 
TABS,ioos:station:wmo:42047:1,2008-01-03T16:00:00Z,27.8966,-93.5973,2.0,36.44,11111222 
TABS,ioos:station:wmo:42047:1,2008-01-03T16:30:00Z,27.8966,-93.5973,2.0,36.44,11111222 
TABS,ioos:station:wmo:42047:1,2008-01-03T17:00:00Z,27.8966,-93.5973,2.0,36.44,11111222 
TABS,ioos:station:wmo:42047:1,2008-01-03T17:30:00Z,27.8966,-93.5973,2.0,36.44,11111222 
TABS,ioos:station:wmo:42047:1,2008-01-03T18:00:00Z,27.8966,-93.5973,2.0,36.44,11111222 
TABS,ioos:station:wmo:42047:1,2008-01-03T18:30:00Z,27.8966,-93.5973,2.0,36.44,11111222 
TABS,ioos:station:wmo:42047:1,2008-01-03T19:00:00Z,27.8966,-93.5973,2.0,36.44,11111222 
TABS,ioos:station:wmo:42047:1,2008-01-03T19:30:00Z,27.8966,-93.5973,2.0,36.44,11111222 
TABS,ioos:station:wmo:42047:1,2008-01-03T20:00:00Z,27.8966,-93.5973,2.0,36.44,11111222 
TABS,ioos:station:wmo:42047:1,2008-01-03T20:30:00Z,27.8966,-93.5973,2.0,36.44,11111222 
TABS,ioos:station:wmo:42047:1,2008-01-03T21:00:00Z,27.8966,-93.5973,2.0,36.45,11111222 
TABS,ioos:station:wmo:42047:1,2008-01-03T21:30:00Z,27.8966,-93.5973,2.0,36.44,11111222 
TABS,ioos:station:wmo:42047:1,2008-01-03T22:00:00Z,27.8966,-93.5973,2.0,36.44,11111222 
TABS,ioos:station:wmo:42047:1,2008-01-03T22:30:00Z,27.8966,-93.5973,2.0,36.44,11111222 
TABS,ioos:station:wmo:42047:1,2008-01-03T23:00:00Z,27.8966,-93.5973,2.0,36.44,11111222 
TABS,ioos:station:wmo:42047:1,2008-01-03T23:30:00Z,27.8966,-93.5973,2.0,36.44,11111222 
TABS,ioos:station:wmo:42047:1,2008-01-04T00:00:00Z,27.8966,-93.5973,2.0,36.44,11111222 
TABS,ioos:station:wmo:42047:1,2008-01-04T00:30:00Z,27.8966,-93.5973,2.0,36.44,11111222 
TABS,ioos:station:wmo:42047:1,2008-01-04T01:00:00Z,27.8966,-93.5973,2.0,36.44,11111222 
TABS,ioos:station:wmo:42047:1,2008-01-04T01:30:00Z,27.8966,-93.5973,2.0,36.44,11111222 
TABS,ioos:station:wmo:42047:1,2008-01-04T02:00:00Z,27.8966,-93.5973,2.0,36.44,11111222 
TABS,ioos:station:wmo:42047:1,2008-01-04T02:30:00Z,27.8966,-93.5973,2.0,36.44,11111222 
TABS,ioos:station:wmo:42047:1,2008-01-04T03:00:00Z,27.8966,-93.5973,2.0,36.44,11111222 
TABS,ioos:station:wmo:42047:1,2008-01-04T03:30:00Z,27.8966,-93.5973,2.0,36.44,11111222 
TABS,ioos:station:wmo:42047:1,2008-01-04T04:00:00Z,27.8966,-93.5973,2.0,36.45,11111222 
TABS,ioos:station:wmo:42047:1,2008-01-04T04:30:00Z,27.8966,-93.5973,2.0,36.44,11111222 
TABS,ioos:station:wmo:42047:1,2008-01-04T05:00:00Z,27.8966,-93.5973,2.0,36.45,11111222 
TABS,ioos:station:wmo:42047:1,2008-01-04T05:30:00Z,27.8966,-93.5973,2.0,36.45,11111222 
TABS,ioos:station:wmo:42047:1,2008-01-04T06:00:00Z,27.8966,-93.5973,2.0,36.45,11111222 
TABS,ioos:station:wmo:42047:1,2008-01-04T06:30:00Z,27.8966,-93.5973,2.0,36.44,11111222 
TABS,ioos:station:wmo:42047:1,2008-01-04T07:00:00Z,27.8966,-93.5973,2.0,36.44,11111222 
TABS,ioos:station:wmo:42047:1,2008-01-04T07:30:00Z,27.8966,-93.5973,2.0,36.44,11111222 
TABS,ioos:station:wmo:42047:1,2008-01-04T08:00:00Z,27.8966,-93.5973,2.0,36.44,11111222 
TABS,ioos:station:wmo:42047:1,2008-01-04T08:30:00Z,27.8966,-93.5973,2.0,36.44,11111222 
TABS,ioos:station:wmo:42047:1,2008-01-04T09:00:00Z,27.8966,-93.5973,2.0,36.44,11111222 
TABS,ioos:station:wmo:42047:1,2008-01-04T09:30:00Z,27.8966,-93.5973,2.0,36.44,11111222 
TABS,ioos:station:wmo:42047:1,2008-01-04T10:00:00Z,27.8966,-93.5973,2.0,36.44,11111222 
TABS,ioos:station:wmo:42047:1,2008-01-04T10:30:00Z,27.8966,-93.5973,2.0,36.44,11111222 
TABS,ioos:station:wmo:42047:1,2008-01-04T11:00:00Z,27.8966,-93.5973,2.0,36.44,11111222 
TABS,ioos:station:wmo:42047:1,2008-01-04T11:30:00Z,27.8966,-93.5973,2.0,36.44,11111222 
TABS,ioos:station:wmo:42047:1,2008-01-04T12:00:00Z,27.8966,-93.5973,2.0,36.44,11111222 
TABS,ioos:station:wmo:42047:1,2008-01-04T12:30:00Z,27.8966,-93.5973,2.0,36.44,11111222 
TABS,ioos:station:wmo:42047:1,2008-01-04T13:00:00Z,27.8966,-93.5973,2.0,36.44,11111222 
TABS,ioos:station:wmo:42047:1,2008-01-04T13:30:00Z,27.8966,-93.5973,2.0,36.44,11111222 
TABS,ioos:station:wmo:42047:1,2008-01-04T14:00:00Z,27.8966,-93.5973,2.0,36.43,11111222 
TABS,ioos:station:wmo:42047:1,2008-01-04T14:30:00Z,27.8966,-93.5973,2.0,36.43,11111222 
TABS,ioos:station:wmo:42047:1,2008-01-04T15:00:00Z,27.8966,-93.5973,2.0,36.44,11111222 
TABS,ioos:station:wmo:42047:1,2008-01-04T15:30:00Z,27.8966,-93.5973,2.0,36.43,11111222 
TABS,ioos:station:wmo:42047:1,2008-01-04T16:00:00Z,27.8966,-93.5973,2.0,36.44,11111222 
TABS,ioos:station:wmo:42047:1,2008-01-04T16:30:00Z,27.8966,-93.5973,2.0,36.44,11111222 
TABS,ioos:station:wmo:42047:1,2008-01-04T17:00:00Z,27.8966,-93.5973,2.0,36.44,11111222 
TABS,ioos:station:wmo:42047:1,2008-01-04T17:30:00Z,27.8966,-93.5973,2.0,36.44,11111222 
TABS,ioos:station:wmo:42047:1,2008-01-04T18:00:00Z,27.8966,-93.5973,2.0,36.44,11111222 
TABS,ioos:station:wmo:42047:1,2008-01-04T18:30:00Z,27.8966,-93.5973,2.0,36.44,11111222 
TABS,ioos:station:wmo:42047:1,2008-01-04T19:00:00Z,27.8966,-93.5973,2.0,36.44,11111222 
TABS,ioos:station:wmo:42047:1,2008-01-04T19:30:00Z,27.8966,-93.5973,2.0,36.44,11111222 
TABS,ioos:station:wmo:42047:1,2008-01-04T20:00:00Z,27.8966,-93.5973,2.0,36.44,11111222 
TABS,ioos:station:wmo:42047:1,2008-01-04T20:30:00Z,27.8966,-93.5973,2.0,36.44,11111222 
TABS,ioos:station:wmo:42047:1,2008-01-04T21:00:00Z,27.8966,-93.5973,2.0,36.44,11111222 
TABS,ioos:station:wmo:42047:1,2008-01-04T21:30:00Z,27.8966,-93.5973,2.0,36.44,11111222 
TABS,ioos:station:wmo:42047:1,2008-01-04T22:00:00Z,27.8966,-93.5973,2.0,36.44,11111222 
TABS,ioos:station:wmo:42047:1,2008-01-04T22:30:00Z,27.8966,-93.5973,2.0,36.44,11111222 
TABS,ioos:station:wmo:42047:1,2008-01-04T23:00:00Z,27.8966,-93.5973,2.0,36.44,11111222 
TABS,ioos:station:wmo:42047:1,2008-01-04T23:30:00Z,27.8966,-93.5973,2.0,36.44,11111222 
TABS,ioos:station:wmo:42047:1,2008-01-05T00:00:00Z,27.8966,-93.5973,2.0,36.44,11111222 
TABS,ioos:station:wmo:42047:1,2008-01-05T00:30:00Z,27.8966,-93.5973,2.0,36.44,11111222 
TABS,ioos:station:wmo:42047:1,2008-01-05T01:00:00Z,27.8966,-93.5973,2.0,36.44,11111222 
TABS,ioos:station:wmo:42047:1,2008-01-05T01:30:00Z,27.8966,-93.5973,2.0,36.44,11111222 
TABS,ioos:station:wmo:42047:1,2008-01-05T02:00:00Z,27.8966,-93.5973,2.0,36.44,11111222 
TABS,ioos:station:wmo:42047:1,2008-01-05T02:30:00Z,27.8966,-93.5973,2.0,36.44,11111222 
TABS,ioos:station:wmo:42047:1,2008-01-05T03:00:00Z,27.8966,-93.5973,2.0,36.44,11111222 
TABS,ioos:station:wmo:42047:1,2008-01-05T03:30:00Z,27.8966,-93.5973,2.0,36.44,11111222 
TABS,ioos:station:wmo:42047:1,2008-01-05T04:00:00Z,27.8966,-93.5973,2.0,36.44,11111222 
TABS,ioos:station:wmo:42047:1,2008-01-05T04:30:00Z,27.8966,-93.5973,2.0,36.44,11111222 
TABS,ioos:station:wmo:42047:1,2008-01-05T05:00:00Z,27.8966,-93.5973,2.0,36.44,11111222 
TABS,ioos:station:wmo:42047:1,2008-01-05T05:30:00Z,27.8966,-93.5973,2.0,36.44,11111222 
TABS,ioos:station:wmo:42047:1,2008-01-05T06:00:00Z,27.8966,-93.5973,2.0,36.44,11111222 
TABS,ioos:station:wmo:42047:1,2008-01-05T06:30:00Z,27.8966,-93.5973,2.0,36.44,11111222 
TABS,ioos:station:wmo:42047:1,2008-01-05T07:00:00Z,27.8966,-93.5973,2.0,36.44,11111222 
TABS,ioos:station:wmo:42047:1,2008-01-05T07:30:00Z,27.8966,-93.5973,2.0,36.44,11111222 
TABS,ioos:station:wmo:42047:1,2008-01-05T08:00:00Z,27.8966,-93.5973,2.0,36.44,11111222 
TABS,ioos:station:wmo:42047:1,2008-01-05T08:30:00Z,27.8966,-93.5973,2.0,36.44,11111222 
TABS,ioos:station:wmo:42047:1,2008-01-05T09:00:00Z,27.8966,-93.5973,2.0,36.44,11111222 
TABS,ioos:station:wmo:42047:1,2008-01-05T09:30:00Z,27.8966,-93.5973,2.0,36.44,11111222 
TABS,ioos:station:wmo:42047:1,2008-01-05T10:00:00Z,27.8966,-93.5973,2.0,36.45,11111222 
TABS,ioos:station:wmo:42047:1,2008-01-05T10:30:00Z,27.8966,-93.5973,2.0,36.45,11111222 
TABS,ioos:station:wmo:42047:1,2008-01-05T11:00:00Z,27.8966,-93.5973,2.0,36.45,11111222 
TABS,ioos:station:wmo:42047:1,2008-01-05T11:30:00Z,27.8966,-93.5973,2.0,36.44,11111222 
TABS,ioos:station:wmo:42047:1,2008-01-05T12:00:00Z,27.8966,-93.5973,2.0,36.44,11111222 
TABS,ioos:station:wmo:42047:1,2008-01-05T12:30:00Z,27.8966,-93.5973,2.0,36.44,11111222 
TABS,ioos:station:wmo:42047:1,2008-01-05T13:00:00Z,27.8966,-93.5973,2.0,36.44,11111222 
TABS,ioos:station:wmo:42047:1,2008-01-05T13:30:00Z,27.8966,-93.5973,2.0,36.44,11111222 
TABS,ioos:station:wmo:42047:1,2008-01-05T14:00:00Z,27.8966,-93.5973,2.0,36.44,11111222 
TABS,ioos:station:wmo:42047:1,2008-01-05T14:30:00Z,27.8966,-93.5973,2.0,36.44,11111222 
TABS,ioos:station:wmo:42047:1,2008-01-05T15:00:00Z,27.8966,-93.5973,2.0,36.44,11111222 
TABS,ioos:station:wmo:42047:1,2008-01-05T15:30:00Z,27.8966,-93.5973,2.0,36.44,11111222 
TABS,ioos:station:wmo:42047:1,2008-01-05T16:00:00Z,27.8966,-93.5973,2.0,36.44,11111222 
TABS,ioos:station:wmo:42047:1,2008-01-05T16:30:00Z,27.8966,-93.5973,2.0,36.44,11111222 
TABS,ioos:station:wmo:42047:1,2008-01-05T17:00:00Z,27.8966,-93.5973,2.0,36.44,11111222 
TABS,ioos:station:wmo:42047:1,2008-01-05T17:30:00Z,27.8966,-93.5973,2.0,36.44,11111222 
TABS,ioos:station:wmo:42047:1,2008-01-05T18:00:00Z,27.8966,-93.5973,2.0,36.44,11111222 
TABS,ioos:station:wmo:42047:1,2008-01-05T18:30:00Z,27.8966,-93.5973,2.0,36.44,11111222 
TABS,ioos:station:wmo:42047:1,2008-01-05T19:00:00Z,27.8966,-93.5973,2.0,36.44,11111222 
TABS,ioos:station:wmo:42047:1,2008-01-05T19:30:00Z,27.8966,-93.5973,2.0,36.44,11111222 
TABS,ioos:station:wmo:42047:1,2008-01-05T20:00:00Z,27.8966,-93.5973,2.0,36.44,11111222 
TABS,ioos:station:wmo:42047:1,2008-01-05T20:30:00Z,27.8966,-93.5973,2.0,36.44,11111222 
TABS,ioos:station:wmo:42047:1,2008-01-05T21:00:00Z,27.8966,-93.5973,2.0,36.44,11111222 
TABS,ioos:station:wmo:42047:1,2008-01-05T21:30:00Z,27.8966,-93.5973,2.0,36.45,11111222 
TABS,ioos:station:wmo:42047:1,2008-01-05T22:00:00Z,27.8966,-93.5973,2.0,36.45,11111222 
TABS,ioos:station:wmo:42047:1,2008-01-05T22:30:00Z,27.8966,-93.5973,2.0,36.45,11111222 
TABS,ioos:station:wmo:42047:1,2008-01-05T23:00:00Z,27.8966,-93.5973,2.0,36.45,11111222 
TABS,ioos:station:wmo:42047:1,2008-01-05T23:30:00Z,27.8966,-93.5973,2.0,36.45,11111222 
TABS,ioos:station:wmo:42047:1,2008-01-06T00:00:00Z,27.8966,-93.5973,2.0,36.45,11111222 
TABS,ioos:station:wmo:42047:1,2008-01-06T00:30:00Z,27.8966,-93.5973,2.0,36.45,11111222 
TABS,ioos:station:wmo:42047:1,2008-01-06T01:00:00Z,27.8966,-93.5973,2.0,36.45,11111222 
TABS,ioos:station:wmo:42047:1,2008-01-06T01:30:00Z,27.8966,-93.5973,2.0,36.45,11111222 
TABS,ioos:station:wmo:42047:1,2008-01-06T02:00:00Z,27.8966,-93.5973,2.0,36.45,11111222 
TABS,ioos:station:wmo:42047:1,2008-01-06T02:30:00Z,27.8966,-93.5973,2.0,36.45,11111222 
TABS,ioos:station:wmo:42047:1,2008-01-06T03:00:00Z,27.8966,-93.5973,2.0,36.45,11111222 
TABS,ioos:station:wmo:42047:1,2008-01-06T03:30:00Z,27.8966,-93.5973,2.0,36.44,11111222 
TABS,ioos:station:wmo:42047:1,2008-01-06T04:00:00Z,27.8966,-93.5973,2.0,36.45,11111222 
TABS,ioos:station:wmo:42047:1,2008-01-06T04:30:00Z,27.8966,-93.5973,2.0,36.44,11111222 
TABS,ioos:station:wmo:42047:1,2008-01-06T05:00:00Z,27.8966,-93.5973,2.0,36.44,11111222 
TABS,ioos:station:wmo:42047:1,2008-01-06T05:30:00Z,27.8966,-93.5973,2.0,36.45,11111222 
TABS,ioos:station:wmo:42047:1,2008-01-06T06:00:00Z,27.8966,-93.5973,2.0,36.45,11111222 
TABS,ioos:station:wmo:42047:1,2008-01-06T06:30:00Z,27.8966,-93.5973,2.0,36.45,11111222 
TABS,ioos:station:wmo:42047:1,2008-01-06T07:00:00Z,27.8966,-93.5973,2.0,36.44,11111222 
TABS,ioos:station:wmo:42047:1,2008-01-06T07:30:00Z,27.8966,-93.5973,2.0,36.44,11111222 
TABS,ioos:station:wmo:42047:1,2008-01-06T08:00:00Z,27.8966,-93.5973,2.0,36.45,11111222 
TABS,ioos:station:wmo:42047:1,2008-01-06T08:30:00Z,27.8966,-93.5973,2.0,36.44,11111222 
TABS,ioos:station:wmo:42047:1,2008-01-06T09:00:00Z,27.8966,-93.5973,2.0,36.45,11111222 
TABS,ioos:station:wmo:42047:1,2008-01-06T09:30:00Z,27.8966,-93.5973,2.0,36.45,11111222 
TABS,ioos:station:wmo:42047:1,2008-01-06T10:00:00Z,27.8966,-93.5973,2.0,36.45,11111222 
TABS,ioos:station:wmo:42047:1,2008-01-06T10:30:00Z,27.8966,-93.5973,2.0,36.45,11111222 
TABS,ioos:station:wmo:42047:1,2008-01-06T11:00:00Z,27.8966,-93.5973,2.0,36.45,11111222 
TABS,ioos:station:wmo:42047:1,2008-01-06T11:30:00Z,27.8966,-93.5973,2.0,36.45,11111222 
TABS,ioos:station:wmo:42047:1,2008-01-06T12:00:00Z,27.8966,-93.5973,2.0,36.45,11111222 
TABS,ioos:station:wmo:42047:1,2008-01-06T12:30:00Z,27.8966,-93.5973,2.0,36.45,11111222 
TABS,ioos:station:wmo:42047:1,2008-01-06T13:00:00Z,27.8966,-93.5973,2.0,36.45,11111222 
TABS,ioos:station:wmo:42047:1,2008-01-06T13:30:00Z,27.8966,-93.5973,2.0,36.45,11111222 
TABS,ioos:station:wmo:42047:1,2008-01-06T14:00:00Z,27.8966,-93.5973,2.0,36.44,11111222 
TABS,ioos:station:wmo:42047:1,2008-01-06T14:30:00Z,27.8966,-93.5973,2.0,36.44,11111222 
TABS,ioos:station:wmo:42047:1,2008-01-06T15:00:00Z,27.8966,-93.5973,2.0,36.44,11111222 
TABS,ioos:station:wmo:42047:1,2008-01-06T15:30:00Z,27.8966,-93.5973,2.0,36.45,11111222 
TABS,ioos:station:wmo:42047:1,2008-01-06T16:00:00Z,27.8966,-93.5973,2.0,36.44,11111222 
TABS,ioos:station:wmo:42047:1,2008-01-06T16:30:00Z,27.8966,-93.5973,2.0,36.44,11111222 
TABS,ioos:station:wmo:42047:1,2008-01-06T17:00:00Z,27.8966,-93.5973,2.0,36.45,11111222 
TABS,ioos:station:wmo:42047:1,2008-01-06T17:30:00Z,27.8966,-93.5973,2.0,36.44,11111222 
TABS,ioos:station:wmo:42047:1,2008-01-06T18:00:00Z,27.8966,-93.5973,2.0,36.44,11111222 
TABS,ioos:station:wmo:42047:1,2008-01-06T18:30:00Z,27.8966,-93.5973,2.0,36.45,11111222 
TABS,ioos:station:wmo:42047:1,2008-01-06T19:00:00Z,27.8966,-93.5973,2.0,36.45,11111222 
TABS,ioos:station:wmo:42047:1,2008-01-06T19:30:00Z,27.8966,-93.5973,2.0,36.44,11111222 
TABS,ioos:station:wmo:42047:1,2008-01-06T20:00:00Z,27.8966,-93.5973,2.0,36.45,11111222 
TABS,ioos:station:wmo:42047:1,2008-01-06T20:30:00Z,27.8966,-93.5973,2.0,36.44,11111222 
TABS,ioos:station:wmo:42047:1,2008-01-06T21:00:00Z,27.8966,-93.5973,2.0,36.44,11111222 
TABS,ioos:station:wmo:42047:1,2008-01-06T21:30:00Z,27.8966,-93.5973,2.0,36.44,11111222 
TABS,ioos:station:wmo:42047:1,2008-01-06T22:00:00Z,27.8966,-93.5973,2.0,36.44,11111222 
TABS,ioos:station:wmo:42047:1,2008-01-06T22:30:00Z,27.8966,-93.5973,2.0,36.44,11111222 
TABS,ioos:station:wmo:42047:1,2008-01-06T23:00:00Z,27.8966,-93.5973,2.0,36.44,11111222 
TABS,ioos:station:wmo:42047:1,2008-01-06T23:30:00Z,27.8966,-93.5973,2.0,36.45,11111222 
TABS,ioos:station:wmo:42047:1,2008-01-07T00:00:00Z,27.8966,-93.5973,2.0,36.45,11111222 
TABS,ioos:station:wmo:42047:1,2008-01-07T00:30:00Z,27.8966,-93.5973,2.0,36.45,11111222 
TABS,ioos:station:wmo:42047:1,2008-01-07T01:00:00Z,27.8966,-93.5973,2.0,36.45,11111222 
TABS,ioos:station:wmo:42047:1,2008-01-07T01:30:00Z,27.8966,-93.5973,2.0,36.45,11111222 
TABS,ioos:station:wmo:42047:1,2008-01-07T02:00:00Z,27.8966,-93.5973,2.0,36.45,11111222 
TABS,ioos:station:wmo:42047:1,2008-01-07T02:30:00Z,27.8966,-93.5973,2.0,36.45,11111222 
TABS,ioos:station:wmo:42047:1,2008-01-07T03:00:00Z,27.8966,-93.5973,2.0,36.45,11111222 
TABS,ioos:station:wmo:42047:1,2008-01-07T03:30:00Z,27.8966,-93.5973,2.0,36.45,11111222 
TABS,ioos:station:wmo:42047:1,2008-01-07T04:00:00Z,27.8966,-93.5973,2.0,36.45,11111222 
TABS,ioos:station:wmo:42047:1,2008-01-07T04:30:00Z,27.8966,-93.5973,2.0,36.45,11111222 
TABS,ioos:station:wmo:42047:1,2008-01-07T05:00:00Z,27.8966,-93.5973,2.0,36.45,11111222 
TABS,ioos:station:wmo:42047:1,2008-01-07T05:30:00Z,27.8966,-93.5973,2.0,36.45,11111222 
TABS,ioos:station:wmo:42047:1,2008-01-07T06:00:00Z,27.8966,-93.5973,2.0,36.45,11111222 
TABS,ioos:station:wmo:42047:1,2008-01-07T06:30:00Z,27.8966,-93.5973,2.0,36.45,11111222 
TABS,ioos:station:wmo:42047:1,2008-01-07T07:00:00Z,27.8966,-93.5973,2.0,36.45,11111222 
TABS,ioos:station:wmo:42047:1,2008-01-07T07:30:00Z,27.8966,-93.5973,2.0,36.45,11111222 
TABS,ioos:station:wmo:42047:1,2008-01-07T08:00:00Z,27.8966,-93.5973,2.0,36.45,11111222 
TABS,ioos:station:wmo:42047:1,2008-01-07T08:30:00Z,27.8966,-93.5973,2.0,36.45,11111222 
TABS,ioos:station:wmo:42047:1,2008-01-07T09:00:00Z,27.8966,-93.5973,2.0,36.45,11111222 
TABS,ioos:station:wmo:42047:1,2008-01-07T09:30:00Z,27.8966,-93.5973,2.0,36.45,11111222 
TABS,ioos:station:wmo:42047:1,2008-01-07T10:00:00Z,27.8966,-93.5973,2.0,36.45,11111222 
TABS,ioos:station:wmo:42047:1,2008-01-07T10:30:00Z,27.8966,-93.5973,2.0,36.45,11111222 
TABS,ioos:station:wmo:42047:1,2008-01-07T11:00:00Z,27.8966,-93.5973,2.0,36.45,11111222 
TABS,ioos:station:wmo:42047:1,2008-01-07T11:30:00Z,27.8966,-93.5973,2.0,36.45,11111222 
TABS,ioos:station:wmo:42047:1,2008-01-07T12:00:00Z,27.8966,-93.5973,2.0,36.45,11111222 
TABS,ioos:station:wmo:42047:1,2008-01-07T12:30:00Z,27.8966,-93.5973,2.0,36.45,11111222 
TABS,ioos:station:wmo:42047:1,2008-01-07T13:00:00Z,27.8966,-93.5973,2.0,36.45,11111222 
TABS,ioos:station:wmo:42047:1,2008-01-07T13:30:00Z,27.8966,-93.5973,2.0,36.45,11111222 
TABS,ioos:station:wmo:42047:1,2008-01-07T14:00:00Z,27.8966,-93.5973,2.0,36.45,11111222 
TABS,ioos:station:wmo:42047:1,2008-01-07T14:30:00Z,27.8966,-93.5973,2.0,36.45,11111222 
TABS,ioos:station:wmo:42047:1,2008-01-07T15:00:00Z,27.8966,-93.5973,2.0,36.45,11111222 